CAPE
0 0 0 0 0 0 0 0 1 2 0 4 10 1 0 0 0 0 0 0 0 0 0 0 0 0 0 0 0 0 0 0 0 0 0 0 0 0 0 0 0 0 0 0
0 9 2 0 0 0 0 0 0 0 0 0 0 9 0 0 0 0 0 0 0 0 0 0 0 0 0 0 0 0 0 0 0 0 0 0 0 0 0 0 0 0 0 0
0 13 5 0 1 0 0 0 0 0 4 9 0 0 0 1 0 0 0 0 0 0 0 0 0 0 0 0 0 0 0 0 0 0 0 0 0 0 0 0 0 0 0 0
1 6 0 0 12 0 0 0 0 0 2 0 1 0 0 0 0 0 0 0 0 0 0 0 0 0 0 0 0 0 0 0 0 0 0 0 0 0 0 0 0 0 0 0
0 0 0 0 8 0 0 0 0 0 0 0 0 0 0 0 0 0 0 0 0 0 0 0 0 0 0 0 0 0 0 0 0 0 0 0 0 0 0 0 0 0 0 0
0 0 0 0 0 0 0 0 0 0 0 0 0 0 0 0 0 0 0 0 0 0 0 0 0 0 0 0 0 0 0 0 0 0 0 0 0 0 0 0 0 0 0 0
0 0 0 0 0 0 0 0 0 0 0 0 0 0 0 0 0 0 0 0 0 0 0 0 0 0 0 0 0 0 0 0 0 0 0 0 0 0 0 0 0 0 0 0
0 0 0 0 0 0 0 0 0 0 0 0 0 0 0 0 0 0 0 0 0 0 0 0 0 0 0 0 0 0 0 0 0 0 0 0 0 0 0 0 0 0 0 0
0 0 0 0 0 0 0 0 0 0 0 0 0 0 0 0 0 0 0 0 0 0 0 0 0 0 0 0 0 0 0 0 0 0 0 0 0 0 0 0 0 0 0 0
0 0 0 0 0 0 0 0 0 0 0 0 0 0 0 0 0 0 0 0 0 0 0 0 0 0 0 0 0 0 0 0 0 0 0 0 0 0 0 0 0 0 0 0
0 0 0 0 0 0 0 0 0 0 0 0 0 0 0 0 0 0 0 0 0 0 0 0 0 0 0 0 0 0 0 0 0 0 0 0 0 0 0 0 0 0 0 0
0 0 0 0 0 0 0 0 0 0 0 0 0 0 0 0 0 0 0 0 0 0 0 0 0 0 0 0 0 0 0 0 0 0 0 0 0 0 0 0 0 0 0 0
0 0 0 0 0 0 0 0 0 0 0 0 0 0 0 0 0 0 0 0 0 0 0 0 0 0 0 0 0 0 0 0 0 0 0 0 0 0 0 0 0 0 0 0
0 0 0 0 0 0 0 0 0 0 0 0 0 0 0 0 0 0 0 0 0 0 0 0 0 0 0 0 0 0 0 0 0 0 0 0 0 0 0 0 0 0 0 0
0 0 0 0 0 0 0 0 0 0 0 0 0 0 0 0 0 0 0 0 0 0 0 0 0 0 0 0 0 0 0 0 0 0 0 0 0 0 0 0 0 0 0 0
0 0 0 0 0 0 0 0 0 0 0 0 0 0 0 0 0 0 0 0 0 0 0 0 0 0 0 0 0 0 0 0 0 0 0 0 0 0 0 0 0 0 0 0
0 0 0 0 0 0 0 0 0 0 0 0 0 0 0 0 0 0 0 0 0 0 0 0 0 0 0 0 0 0 0 0 0 0 0 0 0 0 0 0 0 0 0 0
0 0 0 0 0 0 0 0 0 0 0 0 0 0 0 0 0 0 0 0 0 0 0 0 0 0 0 0 0 0 0 0 0 0 0 0 0 0 0 0 0 0 0 0
0 0 0 0 0 0 0 0 0 0 0 0 0 0 0 0 0 0 0 0 0 0 0 0 0 0 0 0 0 0 0 0 0 0 0 0 0 0 0 0 0 0 0 0
0 0 0 0 0 0 0 0 0 0 0 0 0 0 0 0 0 0 0 0 0 0 0 0 0 0 0 0 0 0 0 0 0 0 0 0 0 0 0 0 0 0 0 0
0 0 0 0 0 0 0 0 0 0 0 0 0 0 0 0 0 0 0 0 0 0 0 0 0 0 0 0 0 0 0 0 0 0 0 0 0 0 0 0 0 0 0 0
0 0 0 0 0 0 0 0 0 0 0 0 0 0 0 0 0 0 0 0 0 0 0 0 0 0 0 0 0 0 0 0 0 0 0 0 0 0 0 0 0 0 0 0
0 0 1 0 0 0 0 0 0 0 0 0 0 0 0 0 0 0 0 0 0 0 0 0 0 0 0 0 0 0 0 0 0 0 0 0 0 0 0 0 0 0 0 0
2 0 0 0 0 0 0 0 0 0 0 0 0 0 0 0 0 0 0 0 0 0 0 0 0 0 0 0 0 0 0 0 0 0 0 0 0 0 0 0 0 0 0 0
1 0 0 0 0 0 0 0 0 0 0 0 0 0 0 0 0 0 0 0 0 0 0 0 0 0 0 0 0 0 0 0 0 0 0 0 0 0 0 0 0 0 0 0
1 5 11 0 0 0 0 0 0 0 0 0 0 0 0 0 0 0 0 0 0 0 0 0 0 0 0 0 0 0 0 0 0 0 0 0 0 0 0 0 0 0 0 0
CIN
0 0 0 0 0 0 0 0 -8 -13 0 -88 -104 -26 0 0 0 0 0 0 0 0 0 0 0 0 0 0 0 0 0 0 0 0 0 0 0 0 0 0 0 0 0 0
0 -105 -76 0 0 0 0 0 0 0 0 -14 0 -93 -51 0 0 0 0 0 0 0 0 0 0 0 0 0 0 0 0 0 0 0 0 0 0 0 0 0 0 0 0 0
0 -84 -58 0 -34 0 0 0 0 0 -62 -127 0 0 0 -70 0 0 0 0 0 0 0 0 0 0 0 0 0 0 0 0 0 0 0 0 0 0 0 0 0 0 0 0
-39 -100 -17 0 -70 0 0 0 0 0 -43 0 -6 0 0 0 0 0 0 0 0 0 0 0 0 0 0 0 0 0 0 0 0 0 0 0 0 0 0 0 0 0 0 0
0 0 0 0 -65 0 0 0 0 0 0 0 0 0 0 0 0 0 0 0 0 0 0 0 0 0 0 0 0 0 0 0 0 0 0 0 0 0 0 0 0 0 0 0
0 0 0 0 0 0 0 0 0 0 0 0 0 0 0 0 0 0 0 0 0 0 0 0 0 0 0 0 0 0 0 0 0 0 0 0 0 0 0 0 0 0 0 0
0 0 0 0 0 0 0 0 0 0 0 0 0 0 0 0 0 0 0 0 0 0 0 0 0 0 0 0 0 0 0 0 0 0 0 0 0 0 0 0 0 0 0 0
0 0 0 0 0 0 0 0 0 0 0 0 0 0 0 0 0 0 0 0 0 0 0 0 0 0 0 0 0 0 0 0 0 0 0 0 0 0 0 0 0 0 0 0
0 0 0 0 0 0 0 0 0 0 0 0 0 0 0 0 0 0 0 0 0 0 0 0 0 0 0 0 0 0 0 0 0 0 0 0 0 0 0 0 0 0 0 0
0 0 0 0 0 0 0 0 0 0 0 0 0 0 0 0 0 0 0 0 0 0 0 0 0 0 0 0 0 0 0 0 0 0 0 0 0 0 0 0 0 0 0 0
0 0 0 0 0 0 0 0 0 0 0 0 0 0 0 0 0 0 0 0 0 0 0 0 0 0 0 0 0 0 0 0 0 0 0 0 0 0 0 0 0 0 0 0
0 0 0 0 0 0 0 0 0 0 0 0 0 0 0 0 0 0 0 0 0 0 0 0 0 0 0 0 0 0 0 0 0 0 0 0 0 0 0 0 0 0 0 0
0 0 0 0 0 0 0 0 0 0 0 0 0 0 0 0 0 0 0 0 0 0 0 0 0 0 0 0 0 0 0 0 0 0 0 0 0 0 0 0 0 0 0 0
0 0 0 0 0 0 0 0 0 0 0 0 0 0 0 0 0 0 0 0 0 0 0 0 0 0 0 0 0 0 0 0 0 0 0 0 0 0 0 0 0 0 0 0
0 0 0 0 0 0 0 0 0 0 0 0 0 0 0 0 0 0 0 0 0 0 0 0 0 0 0 0 0 0 0 0 0 0 0 0 0 0 0 0 0 0 0 0
0 0 0 0 0 0 0 0 0 0 0 0 0 0 0 0 0 0 0 0 0 0 0 0 0 0 0 0 0 0 0 0 0 0 0 0 0 0 0 0 0 0 0 0
0 0 0 0 0 0 0 0 0 0 0 0 0 0 0 0 0 0 0 0 0 0 0 0 0 0 0 0 0 0 0 0 0 0 0 0 0 0 0 0 0 0 0 0
0 0 0 0 0 0 0 0 0 0 0 0 0 0 0 0 0 0 0 0 0 0 0 0 0 0 0 0 0 0 0 0 0 0 0 0 0 0 0 0 0 0 0 0
0 0 0 0 0 0 0 0 0 0 0 0 0 0 0 0 0 0 0 0 0 0 0 0 0 0 0 0 0 0 0 0 0 0 0 0 0 0 0 0 0 0 0 0
0 0 0 0 0 0 0 0 0 0 0 0 0 0 0 0 0 0 0 0 0 0 0 0 0 0 0 0 0 0 0 0 0 0 0 0 0 0 0 0 0 0 0 0
0 0 0 0 0 0 0 0 0 0 0 0 0 0 0 0 0 0 0 0 0 0 0 0 0 0 0 0 0 0 0 0 0 0 0 0 0 0 0 0 0 0 0 0
0 -16 0 0 0 0 0 0 0 0 0 0 0 0 0 0 0 0 0 0 0 0 0 0 0 0 0 0 0 0 0 0 0 0 0 0 0 0 0 0 0 0 0 0
0 0 -13 0 0 0 0 0 0 0 0 0 0 0 0 0 0 0 0 0 0 0 0 0 0 0 0 0 0 0 0 0 0 0 0 0 0 0 0 0 0 0 0 0
-20 0 -3 0 0 0 0 0 0 0 0 0 0 0 0 0 0 0 0 0 0 0 0 0 0 0 0 0 0 0 0 0 0 0 0 0 0 0 0 0 0 0 0 0
-29 0 0 0 0 0 0 0 0 0 0 0 0 0 0 0 0 0 0 0 0 0 0 0 0 0 0 0 0 0 0 0 0 0 0 0 0 0 0 0 0 0 0 0
-3 -35 -32 0 0 0 0 0 0 0 0 0 0 0 0 0 0 0 0 0 0 0 0 0 0 0 0 0 0 0 0 0 0 0 0 0 0 0 0 0 0 0 0 0
Wind_Speed
16 17 20 20 17 18 23 20 19 22 18 9 5 6 8 1 1 4 6 7 8 9 8 8 7 7 7 7 8 9 9 9 8 8 9 9 8 10 11 12 13 14 15 16
15 17 18 19 22 22 23 20 22 22 20 8 12 6 11 3 8 8 8 8 10 5 5 6 6 7 8 7 7 8 9 8 7 6 7 8 8 8 10 11 13 13 14 16
9 15 19 20 20 18 19 18 18 19 15 12 16 19 16 13 9 7 8 7 8 9 7 6 9 10 7 7 6 7 8 7 6 6 6 8 9 9 10 10 11 13 14 15
14 17 16 23 18 16 19 17 18 15 17 21 14 25 19 17 17 7 8 9 9 12 7 4 8 8 9 7 6 6 6 6 6 5 4 5 5 6 8 9 10 12 13 15
13 16 14 11 16 17 20 16 18 17 20 22 19 24 20 19 22 13 5 11 11 13 7 6 10 9 6 5 5 5 5 5 4 4 3 3 6 6 9 8 9 11 13 15
16 16 16 14 14 16 13 17 20 21 22 26 26 24 27 23 23 12 3 5 7 6 5 6 4 4 5 4 4 4 3 3 3 3 3 2 5 6 7 7 8 11 14 16
22 19 17 14 15 16 16 19 24 25 25 28 19 23 25 24 16 8 5 8 14 11 6 6 5 7 6 8 7 6 4 3 3 3 3 5 7 7 6 7 8 10 13 16
23 26 15 14 15 16 15 13 14 21 21 25 19 22 21 16 13 9 9 10 14 14 8 6 4 2 4 6 7 7 5 1 2 4 6 9 9 9 9 9 9 11 14 17
22 25 18 15 17 12 16 15 17 18 22 25 21 19 16 12 11 9 10 11 13 14 12 9 7 3 1 4 6 6 2 3 4 6 9 10 9 11 12 12 13 14 16 18
21 26 19 16 12 16 16 10 15 16 20 22 20 20 19 5 6 6 8 10 11 11 11 12 13 11 6 2 3 3 2 4 6 7 9 11 12 14 15 16 17 17 18 19
20 22 21 15 15 13 15 15 16 13 14 18 21 20 17 2 3 3 5 7 9 10 12 15 17 17 11 6 4 3 4 5 6 8 9 11 13 15 16 17 17 18 20 20
21 21 27 23 20 20 16 16 14 16 17 15 16 12 24 15 0 1 4 6 9 11 14 16 17 18 16 11 7 4 3 4 6 8 10 12 14 15 16 17 18 18 19 20
19 25 28 26 25 20 20 18 17 17 18 13 13 16 20 9 3 1 2 6 9 12 14 16 17 18 16 12 9 8 7 8 9 10 11 13 14 15 16 17 18 18 19 20
17 24 26 30 28 20 22 20 18 18 23 21 10 18 14 6 1 2 4 5 9 13 13 14 15 15 14 12 11 11 11 11 11 11 12 13 14 15 16 17 19 20 21 22
22 27 25 28 25 22 24 22 18 20 20 19 23 10 5 5 6 6 1 3 6 9 11 12 12 13 12 12 13 13 13 12 12 13 13 14 15 16 17 19 20 21 22 24
23 26 24 26 26 26 30 26 21 21 24 25 23 20 16 6 2 4 5 1 2 4 7 8 10 11 11 12 13 13 13 13 13 14 14 14 15 16 18 18 20 22 23 24
25 22 24 31 27 29 36 27 24 25 22 21 24 17 11 3 10 10 7 4 4 5 6 7 8 9 9 11 12 13 13 13 14 14 14 15 15 17 18 19 21 22 23 24
28 25 25 29 26 40 32 27 25 25 26 20 24 19 7 2 8 3 4 5 5 6 6 6 7 8 10 11 12 13 13 13 14 14 14 14 16 17 18 20 21 22 23 25
28 26 28 30 32 34 30 26 23 24 35 23 17 19 13 7 7 7 4 6 6 6 6 8 9 10 10 11 11 12 12 13 13 13 14 15 16 17 18 19 20 21 24 25
29 30 31 28 36 40 32 25 20 20 37 19 16 11 5 2 6 2 8 5 3 4 7 9 9 9 10 10 10 11 11 12 12 13 14 15 16 17 17 18 19 22 25 26
35 35 38 35 37 34 28 22 19 32 29 17 12 7 5 4 11 5 6 5 5 7 9 9 9 9 10 10 9 10 10 11 12 13 15 15 16 17 16 17 19 21 24 25
40 39 38 35 39 45 23 23 26 23 19 18 13 7 4 11 7 3 7 7 7 7 9 9 9 9 9 8 8 9 10 11 12 14 15 15 16 16 16 17 19 21 23 25
44 39 40 33 39 26 24 27 25 24 23 20 14 10 4 3 2 3 5 7 8 9 8 7 8 8 7 7 7 9 9 11 12 14 15 15 16 16 15 17 18 20 21 24
39 33 39 34 32 33 31 29 26 22 22 18 13 6 3 4 4 4 4 7 7 8 8 7 7 6 6 6 7 9 9 11 12 13 14 15 16 16 16 18 18 18 20 23
33 33 37 42 39 35 30 29 32 29 23 17 12 9 6 5 5 5 5 5 6 7 7 7 6 5 5 6 7 9 10 11 12 13 14 15 15 16 17 19 19 19 20 21
31 31 34 33 27 31 34 35 32 27 21 15 11 11 7 6 6 6 5 5 7 7 7 5 4 3 4 5 7 9 9 10 12 14 14 15 15 16 18 19 19 21 23 24
Wind_Direction
297 290 286 290 295 301 304 300 305 309 329 325 283 302 327 14 117 157 163 157 149 145 130 133 139 135 125 113 98 95 104 110 93 77 69 58 52 49 43 37 37 31 28 26
300 289 288 296 295 301 305 296 300 307 321 326 323 310 324 301 187 188 181 171 165 137 128 136 143 149 148 134 109 99 104 106 106 93 68 46 58 43 37 32 28 28 25 20
302 297 293 298 299 302 310 305 304 304 322 318 323 314 315 315 301 286 277 197 175 168 154 144 158 161 156 151 134 120 108 104 101 95 55 31 33 27 20 22 20 16 15 13
307 302 298 290 296 304 300 310 312 315 307 300 313 303 317 322 322 287 266 209 190 177 172 158 157 164 169 165 144 126 111 103 94 92 71 41 29 19 10 12 14 15 15 12
301 303 298 309 302 301 300 308 310 312 305 303 311 302 312 323 319 331 193 188 186 180 182 178 177 181 185 177 164 141 120 102 77 90 88 31 7 1 360 7 7 8 8 7
292 305 306 307 314 309 315 306 305 306 303 294 300 297 301 313 313 336 10 165 188 194 199 191 209 214 200 192 178 160 142 115 79 81 64 19 355 357 356 359 359 359 359 359
282 287 298 305 307 309 310 306 300 298 294 293 305 300 299 304 328 350 9 330 295 308 191 191 192 180 179 176 176 171 162 151 111 67 40 7 356 358 354 354 357 359 359 358
276 279 284 294 293 303 310 306 304 303 303 301 311 301 304 325 343 4 355 337 320 323 326 313 298 232 200 191 186 178 178 171 39 33 12 355 1 8 7 8 12 7 3 2
281 279 292 292 296 298 303 302 306 306 304 302 304 312 320 329 336 345 346 343 335 330 334 343 347 347 245 216 206 196 223 337 6 8 5 8 18 13 16 19 16 14 14 12
280 280 288 292 301 296 295 320 309 306 303 300 305 308 309 299 309 338 351 351 353 358 7 7 358 347 340 301 221 253 303 339 0 10 13 17 19 23 23 21 21 22 18 13
272 276 282 291 287 285 292 296 305 317 311 309 305 313 321 291 281 323 355 359 2 360 356 348 343 346 351 348 330 305 315 342 5 22 27 32 30 27 26 25 23 20 14 13
265 276 270 274 287 285 290 290 294 299 304 315 312 317 301 326 50 78 6 357 347 349 344 345 345 342 350 354 359 360 19 29 41 45 47 39 34 29 26 25 23 21 19 13
263 269 266 273 276 284 283 287 293 302 303 304 307 313 317 358 39 66 340 336 335 333 338 346 347 350 357 8 19 44 63 73 66 60 49 39 34 33 30 28 28 26 18 13
265 266 263 261 271 277 277 285 290 293 292 298 297 307 317 327 280 231 306 324 327 322 334 348 353 358 5 20 42 60 68 71 67 55 47 42 39 37 34 31 24 18 14 7
265 266 267 268 270 273 277 281 284 285 291 298 302 307 300 233 199 182 200 328 341 340 339 344 2 10 25 46 56 62 64 64 61 53 46 43 39 34 29 24 19 14 10 7
272 268 270 269 269 271 273 277 281 284 288 289 300 310 326 331 304 172 171 156 27 18 2 10 24 41 56 61 63 62 62 60 57 52 49 44 36 32 27 22 16 13 11 10
272 268 268 268 273 271 265 268 274 281 286 292 296 314 337 7 163 174 173 162 126 97 75 60 57 61 63 67 68 66 62 58 52 49 47 45 38 29 24 20 17 16 14 12
268 268 268 270 274 262 271 278 278 279 282 286 294 306 319 216 178 249 186 156 131 113 90 74 75 70 72 72 67 67 61 56 54 49 47 42 32 25 24 21 20 19 15 12
264 266 266 264 266 272 275 273 279 277 272 285 291 299 310 330 327 302 191 159 139 119 100 100 93 89 83 78 73 66 57 55 50 45 42 35 30 26 26 24 23 20 14 12
259 262 263 267 263 263 270 277 289 293 271 298 291 289 282 333 305 246 168 165 142 109 112 111 100 91 87 81 73 62 53 50 44 43 39 33 31 28 28 29 24 19 14 12
254 256 254 260 264 269 273 282 288 268 284 298 296 282 223 254 300 313 157 161 145 127 122 113 107 101 97 87 70 53 46 40 44 43 36 32 30 29 31 29 24 18 15 14
249 250 254 257 260 261 279 279 269 288 294 293 304 300 260 291 301 114 147 151 144 134 127 122 111 102 94 83 67 52 41 45 42 36 31 28 28 27 30 27 22 18 16 14
251 250 250 258 262 277 282 271 279 284 289 292 294 299 269 274 272 162 152 152 147 142 136 126 117 102 84 73 60 49 48 43 39 30 26 26 24 24 28 23 19 15 14 11
250 259 254 261 267 265 267 273 277 283 286 289 293 273 234 246 183 168 158 153 153 149 143 133 121 105 80 55 41 44 46 41 34 26 24 22 21 23 22 18 16 14 11 8
258 260 256 257 263 267 268 272 273 275 278 281 287 275 252 201 199 169 168 165 161 153 147 141 131 106 72 54 41 38 39 37 29 24 21 18 20 21 18 16 15 14 11 9
253 256 254 254 265 268 266 272 275 274 267 266 269 271 243 200 184 181 185 178 162 158 153 146 134 104 68 53 37 31 33 31 25 19 17 17 19 16 14 14 15 16 14 12